| time (UTC) | temp C | wind direction | speed KPH | gust KPH | rain 1hr cm | rain 24hr cm | rain mn cm | humidity % | barometer mb |
| 20260505024506 | 15 | 217 | 4.8 | 4.8 | 0.00 | 0.00 | 0.00 | 55 | 1009.2 |
| 20260505024003 | 15 | 164 | 3.2 | 3.2 | 0.00 | 0.00 | 0.00 | 56 | 1009.3 |
| 20260505023500 | 15 | 161 | 4.8 | 8.0 | 0.00 | 0.00 | 0.00 | 56 | 1009.1 |
| 20260505022958 | 15 | 137 | 3.2 | 3.2 | 0.00 | 0.00 | 0.00 | 55 | 1009.2 |
| 20260505022455 | 15 | 158 | 4.8 | 4.8 | 0.00 | 0.00 | 0.00 | 54 | 1009.1 |
| 20260505021952 | 15 | 220 | 4.8 | 4.8 | 0.00 | 0.00 | 0.00 | 54 | 1009.2 |
| 20260505021448 | 15 | 195 | 6.4 | 9.7 | 0.00 | 0.00 | 0.00 | 54 | 1009.0 |
| 20260505020944 | 15 | 139 | 3.2 | 3.2 | 0.00 | 0.00 | 0.00 | 54 | 1009.0 |
| 20260505020439 | 15 | 205 | 3.2 | 4.8 | 0.00 | 0.00 | 0.00 | 53 | 1008.9 |
| 20260505015937 | 16 | 186 | 3.2 | 3.2 | 0.00 | 0.00 | 0.00 | 53 | 1009.1 |
| 20260505015434 | 16 | 215 | 12.9 | 16.1 | 0.00 | 0.00 | 0.00 | 53 | 1009.1 |
| 20260505014931 | 16 | 231 | 4.8 | 9.7 | 0.00 | 0.00 | 0.00 | 53 | 1009.1 |
| 20260505014428 | 16 | 129 | 4.8 | 4.8 | 0.00 | 0.00 | 0.00 | 52 | 1008.7 |
| 20260505013925 | 16 | 176 | 1.6 | 3.2 | 0.00 | 0.00 | 0.00 | 52 | 1008.9 |
| 20260505013422 | 16 | 154 | 0.0 | 1.6 | 0.00 | 0.00 | 0.00 | 52 | 1008.8 |
| 20260505012920 | 16 | 226 | 8.0 | 11.3 | 0.00 | 0.00 | 0.00 | 51 | 1008.6 |
| 20260505012418 | 16 | 165 | 9.7 | 14.5 | 0.00 | 0.00 | 0.00 | 50 | 1008.4 |
| 20260505011914 | 16 | 149 | 1.6 | 1.6 | 0.00 | 0.00 | 0.00 | 51 | 1008.3 |
| 20260505011410 | 16 | 224 | 4.8 | 9.7 | 0.00 | 0.00 | 0.00 | 50 | 1008.2 |
| 20260505010907 | 16 | 125 | 3.2 | 4.8 | 0.00 | 0.00 | 0.00 | 49 | 1008.2 |
| 20260505010403 | 17 | 130 | 1.6 | 1.6 | 0.00 | 0.00 | 0.00 | 50 | 1008.1 |
| 20260505005859 | 17 | 128 | 3.2 | 4.8 | 0.00 | 0.00 | 0.00 | 50 | 1008.0 |
| 20260505005355 | 17 | 150 | 4.8 | 4.8 | 0.00 | 0.00 | 0.00 | 48 | 1007.9 |
| 20260505004853 | 17 | 177 | 1.6 | 1.6 | 0.00 | 0.00 | 0.00 | 48 | 1007.7 |
| 20260505004349 | 17 | 168 | 4.8 | 4.8 | 0.00 | 0.00 | 0.00 | 46 | 1007.7 |
| 20260505003847 | 17 | 169 | 4.8 | 4.8 | 0.00 | 0.00 | 0.00 | 45 | 1007.3 |
| 20260505003344 | 17 | 197 | 4.8 | 4.8 | 0.00 | 0.00 | 0.00 | 44 | 1007.3 |
| 20260505002840 | 18 | 203 | 4.8 | 4.8 | 0.00 | 0.00 | 0.00 | 42 | 1007.0 |
| 20260505002337 | 18 | 147 | 1.6 | 1.6 | 0.00 | 0.00 | 0.00 | 42 | 1006.8 |
| 20260505001835 | 18 | 147 | 1.6 | 1.6 | 0.00 | 0.00 | 0.00 | 41 | 1006.8 |
| 20260505001332 | 18 | 127 | 1.6 | 3.2 | 0.00 | 0.00 | 0.00 | 40 | 1006.8 |
| 20260505000829 | 18 | 162 | 1.6 | 1.6 | 0.00 | 0.00 | 0.00 | 40 | 1006.7 |
| 20260505000327 | 18 | 226 | 6.4 | 8.0 | 0.00 | 0.00 | 0.00 | 39 | 1006.5 |
| 20260504235823 | 18 | 158 | 1.6 | 3.2 | 0.00 | 0.00 | 0.00 | 40 | 1006.6 |
| 20260504235320 | 18 | 169 | 3.2 | 3.2 | 0.00 | 0.00 | 0.00 | 39 | 1006.4 |
| 20260504234817 | 18 | 130 | 3.2 | 3.2 | 0.00 | 0.00 | 0.00 | 39 | 1006.3 |
| 20260504234315 | 19 | 118 | 0.0 | 1.6 | 0.00 | 0.00 | 0.00 | 39 | 1006.3 |
| 20260504233811 | 19 | 156 | 1.6 | 3.2 | 0.00 | 0.00 | 0.00 | 38 | 1006.2 |
| 20260504233307 | 20 | 130 | 1.6 | 1.6 | 0.00 | 0.00 | 0.00 | 38 | 1006.0 |
| 20260504232804 | 20 | 128 | 1.6 | 1.6 | 0.00 | 0.00 | 0.00 | 38 | 1006.1 |
| 20260504232301 | 20 | 139 | 1.6 | 1.6 | 0.00 | 0.00 | 0.00 | 38 | 1006.2 |
| 20260504231758 | 20 | 194 | 3.2 | 3.2 | 0.00 | 0.00 | 0.00 | 38 | 1005.9 |
| 20260504231254 | 20 | 179 | 4.8 | 4.8 | 0.00 | 0.00 | 0.00 | 37 | 1005.8 |
| 20260504230750 | 20 | 144 | 3.2 | 4.8 | 0.00 | 0.00 | 0.00 | 37 | 1005.8 |
| 20260504230248 | 20 | 171 | 3.2 | 3.2 | 0.00 | 0.00 | 0.00 | 36 | 1005.6 |
| 20260504225747 | 20 | 217 | 9.7 | 11.3 | 0.00 | 0.00 | 0.00 | 36 | 1005.8 |
| 20260504225243 | 20 | 92 | 3.2 | 4.8 | 0.00 | 0.00 | 0.00 | 36 | 1005.7 |
| 20260504224740 | 20 | 135 | 4.8 | 4.8 | 0.00 | 0.00 | 0.00 | 36 | 1005.7 |
| 20260504224237 | 20 | 120 | 4.8 | 4.8 | 0.00 | 0.00 | 0.00 | 35 | 1005.5 |
| 20260504223733 | 20 | 110 | 4.8 | 4.8 | 0.00 | 0.00 | 0.00 | 35 | 1005.4 |
| 20260504223229 | 20 | 207 | 4.8 | 4.8 | 0.00 | 0.00 | 0.00 | 36 | 1005.5 |
| 20260504222727 | 21 | 111 | 3.2 | 3.2 | 0.00 | 0.00 | 0.00 | 34 | 1005.5 |
| 20260504222223 | 20 | 127 | 4.8 | 8.0 | 0.00 | 0.00 | 0.00 | 35 | 1005.5 |
| 20260504221721 | 20 | 203 | 6.4 | 9.7 | 0.00 | 0.00 | 0.00 | 35 | 1005.3 |
| 20260504221218 | 20 | 86 | 4.8 | 4.8 | 0.00 | 0.00 | 0.00 | 36 | 1005.5 |
| 20260504220714 | 20 | 187 | 4.8 | 8.0 | 0.00 | 0.00 | 0.00 | 35 | 1005.4 |
| 20260504220212 | 20 | 70 | 6.4 | 8.0 | 0.00 | 0.00 | 0.00 | 35 | 1005.4 |
| 20260504215708 | 20 | 119 | 4.8 | 8.0 | 0.00 | 0.00 | 0.00 | 35 | 1005.5 |
| 20260504215206 | 20 | 210 | 4.8 | 8.0 | 0.00 | 0.00 | 0.00 | 35 | 1005.6 |
| 20260504214701 | 21 | 249 | 4.8 | 8.0 | 0.00 | 0.00 | 0.00 | 34 | 1005.6 |
| 20260504214158 | 20 | 279 | 4.8 | 4.8 | 0.00 | 0.00 | 0.00 | 34 | 1005.1 |
| 20260504213654 | 21 | 102 | 9.7 | 11.3 | 0.00 | 0.00 | 0.00 | 33 | 1005.4 |
| 20260504213151 | 21 | 152 | 1.6 | 1.6 | 0.00 | 0.00 | 0.00 | 34 | 1005.6 |
| 20260504212647 | 21 | 97 | 3.2 | 3.2 | 0.00 | 0.00 | 0.00 | 33 | 1005.5 |
| 20260504212144 | 21 | 266 | 11.3 | 17.7 | 0.00 | 0.00 | 0.00 | 32 | 1005.7 |
| 20260504211642 | 21 | 174 | 6.4 | 8.0 | 0.00 | 0.00 | 0.00 | 33 | 1005.6 |
| 20260504211138 | 21 | 281 | 6.4 | 9.7 | 0.00 | 0.00 | 0.00 | 33 | 1005.5 |
| 20260504210636 | 21 | 280 | 3.2 | 3.2 | 0.00 | 0.00 | 0.00 | 33 | 1005.5 |
| 20260504210132 | 21 | 83 | 6.4 | 8.0 | 0.00 | 0.00 | 0.00 | 34 | 1005.5 |
| 20260504205630 | 21 | 123 | 3.2 | 3.2 | 0.00 | 0.00 | 0.00 | 33 | 1005.5 |
| 20260504205127 | 21 | 108 | 3.2 | 3.2 | 0.00 | 0.00 | 0.00 | 33 | 1005.5 |
| 20260504204625 | 22 | 220 | 4.8 | 9.7 | 0.00 | 0.00 | 0.00 | 32 | 1005.4 |
| 20260504204124 | 21 | 280 | 6.4 | 8.0 | 0.00 | 0.00 | 0.00 | 32 | 1005.4 |
| 20260504203622 | 21 | 212 | 6.4 | 8.0 | 0.00 | 0.00 | 0.00 | 32 | 1005.4 |
| 20260504203119 | 21 | 91 | 6.4 | 8.0 | 0.00 | 0.00 | 0.00 | 32 | 1005.3 |
| 20260504202614 | 21 | 163 | 6.4 | 8.0 | 0.00 | 0.00 | 0.00 | 32 | 1005.4 |
| 20260504202111 | 21 | 113 | 3.2 | 3.2 | 0.00 | 0.00 | 0.00 | 33 | 1005.4 |
| 20260504201608 | 21 | 275 | 6.4 | 9.7 | 0.00 | 0.00 | 0.00 | 32 | 1005.4 |
| 20260504201106 | 21 | 277 | 8.0 | 11.3 | 0.00 | 0.00 | 0.00 | 31 | 1005.3 |
| 20260504200603 | 21 | 41 | 4.8 | 4.8 | 0.00 | 0.00 | 0.00 | 32 | 1005.2 |
| 20260504200059 | 21 | 277 | 14.5 | 17.7 | 0.00 | 0.00 | 0.00 | 32 | 1005.4 |
| 20260504195555 | 22 | 189 | 9.7 | 14.5 | 0.00 | 0.00 | 0.00 | 31 | 1005.4 |
| 20260504195052 | 21 | 230 | 3.2 | 8.0 | 0.00 | 0.00 | 0.00 | 32 | 1005.4 |
| 20260504194548 | 21 | 101 | 8.0 | 11.3 | 0.00 | 0.00 | 0.00 | 32 | 1005.4 |
| 20260504194044 | 20 | 226 | 8.0 | 9.7 | 0.00 | 0.00 | 0.00 | 32 | 1005.2 |
| 20260504193541 | 20 | 249 | 4.8 | 4.8 | 0.00 | 0.00 | 0.00 | 33 | 1005.6 |
| 20260504193039 | 20 | 182 | 8.0 | 9.7 | 0.00 | 0.00 | 0.00 | 33 | 1005.6 |
| 20260504192537 | 20 | 124 | 1.6 | 1.6 | 0.00 | 0.00 | 0.00 | 34 | 1005.6 |
| 20260504192035 | 20 | 163 | 0.0 | 1.6 | 0.00 | 0.00 | 0.00 | 34 | 1005.7 |
| 20260504191533 | 20 | 59 | 4.8 | 4.8 | 0.00 | 0.00 | 0.00 | 33 | 1005.8 |
| 20260504191029 | 21 | 114 | 3.2 | 4.8 | 0.00 | 0.00 | 0.00 | 32 | 1005.7 |
| 20260504190525 | 20 | 292 | 8.0 | 9.7 | 0.00 | 0.00 | 0.00 | 33 | 1005.7 |
| 20260504190021 | 20 | 219 | 1.6 | 3.2 | 0.00 | 0.00 | 0.00 | 34 | 1005.8 |
| 20260504185518 | 20 | 257 | 4.8 | 8.0 | 0.00 | 0.00 | 0.00 | 34 | 1005.9 |
| 20260504185015 | 19 | 95 | 3.2 | 8.0 | 0.00 | 0.00 | 0.00 | 33 | 1005.6 |
| 20260504184510 | 20 | 288 | 4.8 | 8.0 | 0.00 | 0.00 | 0.00 | 34 | 1005.9 |
| 20260504184006 | 20 | 310 | 6.4 | 9.7 | 0.00 | 0.00 | 0.00 | 32 | 1005.9 |
| 20260504183503 | 22 | 248 | 9.7 | 11.3 | 0.00 | 0.00 | 0.00 | 30 | 1006.0 |
| 20260504183002 | 21 | 243 | 6.4 | 9.7 | 0.00 | 0.00 | 0.00 | 30 | 1005.9 |
| 20260504182458 | 21 | 113 | 3.2 | 3.2 | 0.00 | 0.00 | 0.00 | 33 | 1005.9 |
| 20260504181955 | 21 | 259 | 8.0 | 11.3 | 0.00 | 0.00 | 0.00 | 31 | 1006.0 |
| 20260504181452 | 20 | 335 | 8.0 | 9.7 | 0.00 | 0.00 | 0.00 | 31 | 1006.0 |
| 20260504180950 | 21 | 178 | 8.0 | 11.3 | 0.00 | 0.00 | 0.00 | 32 | 1005.9 |
| 20260504180449 | 21 | 256 | 8.0 | 12.9 | 0.00 | 0.00 | 0.00 | 32 | 1005.9 |
| 20260504175947 | 20 | 151 | 3.2 | 4.8 | 0.00 | 0.00 | 0.00 | 32 | 1006.2 |
| 20260504175444 | 20 | 180 | 11.3 | 14.5 | 0.00 | 0.00 | 0.00 | 33 | 1006.1 |
| 20260504174941 | 20 | 194 | 8.0 | 12.9 | 0.00 | 0.00 | 0.00 | 33 | 1006.3 |
| 20260504174439 | 20 | 147 | 11.3 | 16.1 | 0.00 | 0.00 | 0.00 | 33 | 1005.9 |
| 20260504173936 | 20 | 268 | 6.4 | 8.0 | 0.00 | 0.00 | 0.00 | 34 | 1006.1 |
| 20260504173432 | 20 | 237 | 4.8 | 8.0 | 0.00 | 0.00 | 0.00 | 33 | 1006.2 |
| 20260504172930 | 20 | 211 | 1.6 | 3.2 | 0.00 | 0.00 | 0.00 | 35 | 1006.3 |
| 20260504172426 | 20 | 209 | 8.0 | 12.9 | 0.00 | 0.00 | 0.00 | 33 | 1006.4 |
| 20260504171922 | 20 | 277 | 14.5 | 20.9 | 0.00 | 0.00 | 0.00 | 32 | 1006.4 |
| 20260504171420 | 20 | 164 | 8.0 | 12.9 | 0.00 | 0.00 | 0.00 | 34 | 1006.4 |
| 20260504170917 | 20 | 274 | 8.0 | 12.9 | 0.00 | 0.00 | 0.00 | 34 | 1006.5 |
| 20260504170413 | 20 | 202 | 8.0 | 11.3 | 0.00 | 0.00 | 0.00 | 33 | 1006.6 |
| 20260504160332 | 18 | 200 | 3.2 | 3.2 | 0.00 | 0.00 | 0.00 | 36 | 1006.9 |
| 20260504150756 | 18 | 266 | 4.8 | 9.7 | 0.00 | 0.00 | 0.00 | 39 | 1007.2 |
| 20260504150253 | 18 | 242 | 4.8 | 8.0 | 0.00 | 0.00 | 0.00 | 39 | 1007.3 |
| 20260504141223 | 16 | 181 | 8.0 | 11.3 | 0.00 | 0.00 | 0.00 | 44 | 1008.1 |
| 20260504140720 | 16 | 259 | 4.8 | 4.8 | 0.00 | 0.00 | 0.00 | 45 | 1008.1 |
| 20260504140215 | 16 | 166 | 1.6 | 3.2 | 0.00 | 0.00 | 0.00 | 45 | 1008.2 |
| 20260504130643 | 13 | 112 | 3.2 | 3.2 | 0.00 | 0.00 | 0.00 | 50 | 1009.0 |
| 20260504130140 | 13 | 176 | 4.8 | 8.0 | 0.00 | 0.00 | 0.00 | 48 | 1009.0 |
| 20260504120104 | 11 | 108 | 1.6 | 3.2 | 0.00 | 0.00 | 0.00 | 54 | 1009.3 |
| 20260504110531 | 8 | 144 | 1.6 | 1.6 | 0.00 | 0.00 | 0.00 | 61 | 1009.4 |
| 20260504100448 | 7 | 138 | 1.6 | 1.6 | 0.00 | 0.00 | 0.00 | 63 | 1009.3 |
| 20260504081841 | 6 | 130 | 0.0 | 0.0 | 0.00 | 0.00 | 0.00 | 62 | 1009.2 |
| 20260504081337 | 6 | 200 | 4.8 | 4.8 | 0.00 | 0.00 | 0.00 | 61 | 1009.4 |
| 20260504080833 | 6 | 143 | 1.6 | 1.6 | 0.00 | 0.00 | 0.00 | 60 | 1009.2 |
| 20260504080331 | 6 | 127 | 1.6 | 1.6 | 0.00 | 0.00 | 0.00 | 61 | 1009.5 |
| 20260504070258 | 5 | 117 | 0.0 | 0.0 | 0.00 | 0.00 | 0.00 | 61 | 1009.2 |
| 20260504060218 | 5 | 117 | 0.0 | 0.0 | 0.00 | 0.00 | 0.00 | 61 | 1009.3 |
| 20260504050646 | 5 | 118 | 1.6 | 3.2 | 0.00 | 0.00 | 0.00 | 64 | 1009.2 |
| 20260504050143 | 5 | 113 | 1.6 | 3.2 | 0.00 | 0.00 | 0.00 | 64 | 1009.3 |
| 20260504045640 | 5 | 133 | 1.6 | 1.6 | 0.00 | 0.00 | 0.00 | 64 | 1009.4 |
| 20260504045135 | 5 | 129 | 0.0 | 1.6 | 0.00 | 0.00 | 0.00 | 65 | 1009.3 |
| 20260504044633 | 5 | 139 | 0.0 | 1.6 | 0.00 | 0.00 | 0.00 | 63 | 1009.5 |
| 20260504044129 | 5 | 107 | 0.0 | 1.6 | 0.00 | 0.00 | 0.00 | 64 | 1009.4 |
| 20260504043626 | 4 | 122 | 0.0 | 1.6 | 0.00 | 0.00 | 0.00 | 64 | 1009.4 |
| 20260504043124 | 4 | 121 | 0.0 | 0.0 | 0.00 | 0.00 | 0.00 | 64 | 1009.3 |
| 20260504042621 | 5 | 123 | 0.0 | 0.0 | 0.00 | 0.00 | 0.00 | 64 | 1009.1 |
| 20260504042117 | 4 | 110 | 1.6 | 1.6 | 0.00 | 0.00 | 0.00 | 64 | 1009.3 |
| 20260504041613 | 4 | 113 | 0.0 | 0.0 | 0.00 | 0.00 | 0.00 | 65 | 1009.2 |
| 20260504041110 | 4 | 117 | 0.0 | 0.0 | 0.00 | 0.00 | 0.00 | 66 | 1009.2 |
| 20260504040607 | 4 | 118 | 1.6 | 1.6 | 0.00 | 0.00 | 0.00 | 66 | 1008.9 |
| 20260504040103 | 4 | 126 | 0.0 | 1.6 | 0.00 | 0.00 | 0.00 | 65 | 1009.1 |
| 20260504035600 | 4 | 114 | 0.0 | 0.0 | 0.00 | 0.03 | 0.03 | 65 | 1009.2 |
| 20260504035056 | 4 | 112 | 0.0 | 1.6 | 0.00 | 0.03 | 0.03 | 65 | 1009.1 |
| 20260504034555 | 5 | 128 | 1.6 | 1.6 | 0.00 | 0.03 | 0.03 | 64 | 1008.9 |
| 20260504034051 | 5 | 124 | 0.0 | 1.6 | 0.00 | 0.03 | 0.03 | 64 | 1009.2 |
| 20260504033549 | 5 | 113 | 0.0 | 0.0 | 0.00 | 0.03 | 0.03 | 63 | 1009.0 |
| 20260504033046 | 5 | 128 | 0.0 | 0.0 | 0.00 | 0.03 | 0.03 | 63 | 1009.0 |
| 20260504032543 | 5 | 116 | 0.0 | 0.0 | 0.00 | 0.03 | 0.03 | 63 | 1009.0 |
| 20260504032040 | 5 | 118 | 0.0 | 0.0 | 0.00 | 0.03 | 0.03 | 62 | 1009.1 |
| 20260504031537 | 5 | 112 | 0.0 | 0.0 | 0.00 | 0.03 | 0.03 | 62 | 1008.9 |
| 20260504031033 | 5 | 117 | 0.0 | 0.0 | 0.00 | 0.03 | 0.03 | 62 | 1009.1 |
| 20260504030531 | 5 | 111 | 0.0 | 0.0 | 0.00 | 0.03 | 0.03 | 62 | 1009.3 |
| 20260504030027 | 5 | 122 | 0.0 | 0.0 | 0.00 | 0.03 | 0.03 | 62 | 1009.0 |
| 20260504025524 | 5 | 114 | 0.0 | 0.0 | 0.00 | 0.03 | 0.03 | 61 | 1009.2 |
| 20260504025020 | 5 | 113 | 0.0 | 0.0 | 0.00 | 0.03 | 0.03 | 61 | 1009.2 |